Regional Weather Roundup
Issued by NWS Jackson, KY

Home | Current Version | Previous Version | Graphics & Text | Print | Product List | Glossary On
Versions: 1 2 3 4 5 6 7 8 9 10 11 12 13 14 15 16 17 18 19 20 21 22 23 24 25 26 27 28 29 30 31 32 33 34 35 36 37 38 39 40 41 42 43 44 45 46 47 48 49 50
279
ASUS43 KJKL 310210
RWRJKL

EAST KENTUCKY HOURLY WEATHER ROUNDUP
NATIONAL WEATHER SERVICE JACKSON KY
1000 PM EDT MON MAY 30 2016

NOTE: "FAIR" INDICATES FEW OR NO CLOUDS BELOW 12,000 FEET WITH
NO SIGNIFICANT WEATHER AND/OR OBSTRUCTIONS TO VISIBILITY.

* THESE REPORTS ARE NOT UNDER NWS QUALITY CONTROL AND MAY NOT
  REPORT WEATHER SUCH AS PRECIPITATION AND FOG.

KYZ079-080-083-085-087-088-110-112-115-119-120-310300
...EASTERN KENTUCKY...

CITY           SKY/WX    TMP DP  RH WIND       PRES   REMARKS
JACKSON        CLEAR     72  60  66 CALM      30.02R
LONDON         CLEAR     72  61  68 CALM      30.01R
SOMERSET*      CLEAR     70  59  68 CALM      30.01S
MONTICELLO*    CLEAR     68  65  90 VRB5      30.02R
WILLIAMSBURG*  CLEAR     64  63  94 CALM      30.01R
MIDDLESBORO*   CLEAR     70  65  83 CALM      30.01R
HARLAN APT*      N/A    N/A N/A N/A CALM      30.03R
HAZARD APT*    CLEAR     72  61  68 CALM      30.02R
BLACK MTN*       N/A     63  59  88 N6          N/A
PIKE CO APT*     N/A     74  62  66 CALM      30.02R
BIG SANDY APT* CLEAR     73  61  65 CALM      30.02R
MOREHEAD APT*  CLEAR     73  61  64 CALM      30.02R
ASHLAND*       CLEAR     68  63  83 CALM      29.97R
$$

KYZ035-036-041-042-044-050-067-078-099-310300
...CENTRAL KENTUCKY...

CITY           SKY/WX    TMP DP  RH WIND       PRES   REMARKS
MT STERLING*   CLEAR     68  64  88 CALM      30.02R
FLEMING/MASON* CLEAR     74  60  62 CALM      30.01R
DANVILLE*      PTCLDY    70  61  73 CALM      30.02R
RICHMOND*      PTCLDY    72  61  68 CALM      30.01R
LEXINGTON      CLEAR     74  60  61 CALM      30.00R
FRANKFORT      CLEAR     70  59  68 CALM      29.98S
LOUISVILLE     PTCLDY    81  54  39 CALM      29.97S
LEBANON*         N/A     77  57  50 NE3       30.00S
GLASGOW*       CLEAR     71  61  71 CALM      29.99R
BOWLING GREEN  CLOUDY    75  59  57 CALM      29.98R
$$

KYZ091>093-OHZ055-061-077-WVZ005-015-034-035-042-310300
...SOUTHERN OHIO/WEST VIRGINIA...

CITY           SKY/WX    TMP DP  RH WIND       PRES   REMARKS
COVINGTON      PTCLDY    73  59  61 NW5       29.98S
COLUMBUS       PTCLDY    73  57  57 CALM      29.97R
DAYTON         MOCLDY    75  55  49 SW5       30.00R
WILMINGTON     CLEAR     72  59  63 CALM      29.99R
HUNTINGTON       N/A     72  61  68 E3        29.99R
CHARLESTON       N/A     71  63  75 CALM      30.00R
PINEVILLE*       N/A     67  60  78 MISG      30.09R
BECKLEY          N/A     70  60  70 NE3       30.07R
BLUEFIELD        N/A     69  56  62 NE5       30.09R
LOGAN CO APT*    N/A     73  63  68 CALM      30.02R
$$

VAZ002-007-008-TNZ017-027-036-066-071-310300
...SOUTHWEST VIRGINIA/EAST TENNESSEE...

CITY           SKY/WX    TMP DP  RH WIND       PRES   REMARKS
WISE*            N/A     68  54  60 CALM      30.09R
JONESVILLE*      N/A     68  64  88 CALM      30.04R
ABINGDON*        N/A     72  61  69 E3        30.05R
BRISTOL        CLEAR     69  61  75 N5        30.01R
SEVIERVILLE*   CLEAR     70  61  73 CALM      29.99R
KNOXVILLE      CLEAR     72  66  81 CALM      29.98R
OAK RIDGE      CLEAR     76  62  62 CALM      30.00R
CROSSVILLE     CLEAR     74  57  55 N5        30.04R
NASHVILLE      PTCLDY    79  57  46 CALM      29.98R
$$

...KEY TO REMARKS...
VSB - VISIBILITY IN MILES
WCI - WIND CHILL INDEX
HX  - HEAT INDEX

$$




USA.gov is the U.S. government's official web portal to all federal, state and local government web resources and services.